Temp
60 60 60 61 61 61 61 61 61 61 61 61 62 62 62 61 62 57 50 58 61 65 62 56 57 57 56 54 57 55 44 41 45 47 54 56 57 61 64 60 60 62 61 63 65
59 59 60 60 61 61 61 61 61 61 61 62 62 63 62 61 52 50 61 65 65 64 54 50 50 54 49 51 53 48 41 45 52 54 56 58 59 61 59 58 58 60 63 65 64
58 59 59 60 60 61 61 61 60 60 61 62 62 62 60 56 45 46 63 64 64 61 54 53 52 51 46 48 47 45 42 47 52 51 51 54 57 60 58 58 60 62 61 62 62
58 58 58 59 59 60 61 61 60 60 61 62 62 62 59 51 34 50 63 63 63 57 53 49 46 42 40 40 47 41 49 49 51 53 52 51 55 55 57 60 65 63 63 61 62
57 57 58 58 59 60 60 61 60 60 61 62 62 61 51 40 42 57 60 58 55 53 48 45 42 39 35 38 42 40 44 49 52 52 53 55 53 53 56 62 64 62 61 61 62
57 57 57 57 58 59 60 60 61 60 61 62 62 60 46 35 54 55 53 53 52 49 47 47 43 43 38 38 37 42 43 44 49 52 53 50 53 51 56 65 64 63 60 61 61
57 56 57 57 58 58 59 60 61 61 61 62 62 55 45 42 54 51 52 51 51 49 46 48 47 44 40 37 43 42 36 41 44 48 51 55 50 50 56 62 63 62 61 59 61
56 56 56 57 57 58 58 59 60 60 61 62 60 49 40 53 51 53 51 50 52 51 49 49 49 45 41 42 39 35 34 27 40 44 47 46 39 52 55 53 54 59 62 60 60
56 56 56 57 57 57 57 59 59 60 61 60 50 44 38 56 48 50 47 46 48 49 51 56 48 38 38 30 26 28 21 26 31 42 42 40 35 47 55 55 50 52 55 57 61
56 56 56 57 57 57 56 58 58 56 53 55 51 40 45 42 46 49 49 48 44 42 44 41 36 31 30 26 17 22 21 26 26 36 38 35 36 42 48 51 51 49 52 55 57
56 56 56 57 56 55 47 44 41 42 42 37 39 38 43 47 48 48 48 45 42 38 29 34 29 23 25 27 29 26 24 22 29 36 33 33 34 39 45 48 50 53 51 54 58
56 56 56 56 55 54 43 36 35 38 35 42 43 42 46 44 38 44 48 38 35 29 31 30 24 30 34 32 29 27 24 22 28 36 34 31 30 38 42 43 49 51 55 56 58
56 55 56 56 55 45 39 39 44 41 32 38 42 41 42 43 37 39 43 37 32 29 27 25 30 35 32 29 30 26 24 24 25 31 32 27 27 30 40 44 48 52 55 56 57
56 55 55 56 47 40 37 44 44 42 17 32 36 40 43 40 35 45 44 38 33 29 28 27 32 32 30 29 30 25 30 29 28 25 16 27 14 26 34 36 42 47 49 51 51
55 55 55 53 41 38 41 44 42 38 14 34 36 46 42 37 36 40 44 39 30 30 30 29 28 29 28 31 31 28 32 29 29 24 20 20 14 20 31 33 36 43 47 49 50
55 54 54 46 41 40 43 41 38 22 15 23 33 33 34 34 35 37 37 39 36 31 30 28 32 30 30 33 32 34 29 29 25 22 6 18 17 20 25 32 37 42 44 48 49
54 53 49 46 38 41 40 35 22 17 26 21 22 31 30 29 31 31 30 27 24 15 12 24 28 30 33 29 32 29 19 8 5 3 7 22 21 24 33 38 38 39 41 43 47
53 50 46 44 41 40 35 25 16 12 12 30 30 29 24 27 28 27 27 20 28 23 11 10 14 28 31 29 25 26 21 9 1 8 14 26 17 23 35 37 42 40 41 43 44
52 41 40 41 42 38 29 13 20 19 30 29 29 18 9 24 23 24 18 18 26 21 13 8 15 29 31 30 29 24 11 24 14 19 12 18 23 32 36 36 36 36 37 38 44
41 38 38 42 40 33 21 26 20 32 33 32 23 22 8 7 18 16 13 21 24 27 21 18 8 26 29 31 30 27 30 13 12 -2 -1 15 20 21 30 32 36 35 35 37 41
43 30 38 40 38 25 18 16 20 31 33 31 27 16 18 15 13 6 12 19 25 25 25 13 17 19 22 17 22 23 18 16 13 14 8 8 17 31 28 30 31 31 36 38 41
37 27 37 38 21 17 12 17 32 30 30 29 29 28 25 21 13 14 12 20 30 29 23 22 15 14 16 25 28 26 23 22 7 8 15 15 14 34 34 34 32 35 38 39 40
32 26 36 36 16 11 15 22 28 27 29 25 25 30 28 24 15 20 22 30 31 29 22 22 10 4 15 18 22 14 24 27 22 21 12 9 14 33 32 35 36 35 37 38 39
30 25 28 24 19 16 15 17 19 30 28 30 26 27 26 24 26 15 24 31 32 31 37 33 15 13 10 16 9 13 17 23 20 14 14 16 21 28 31 32 35 35 37 37 38
33 24 23 21 21 13 20 24 23 21 23 29 26 26 22 13 22 22 25 27 30 34 31 25 11 14 20 23 22 20 19 20 18 20 15 20 21 26 30 31 34 36 36 35 36
31 27 24 10 16 17 20 21 26 25 24 21 22 28 24 19 23 23 27 26 25 27 26 22 11 10 16 22 21 16 20 20 21 21 21 21 20 31 34 35 32 34 34 34 35
37 32 30 26 20 18 19 24 28 29 30 31 29 27 25 28 30 29 31 31 30 27 24 19 11 6 6 18 16 7 13 15 19 23 22 16 27 34 32 33 34 36 35 34 34
MSLP
1026.10 1025.80 1025.39 1025.11 1025.06 1024.86 1024.36 1024.03 1023.88 1023.77 1023.55 1023.02 1022.54 1022.20 1021.96 1021.95 1021.66 1020.55 1021.60 1022.73 1021.95 1021.06 1020.12 1019.24 1018.34 1018.00 1017.61 1017.74 1017.88 1017.59 1017.91 1017.66 1017.02 1016.47 1015.00 1013.66 1013.00 1012.05 1011.56 1011.63 1011.73 1011.96 1011.45 1011.06 1011.12
1026.38 1026.33 1025.71 1025.38 1025.39 1025.12 1024.76 1024.01 1023.75 1023.47 1023.55 1023.26 1022.60 1021.99 1021.74 1021.94 1022.06 1022.22 1023.04 1022.35 1021.73 1021.12 1020.44 1019.89 1019.32 1018.68 1018.77 1018.86 1018.41 1018.60 1018.86 1018.11 1017.16 1016.29 1015.19 1014.13 1013.56 1012.48 1012.12 1011.81 1011.69 1011.72 1011.61 1011.34 1011.71
1026.85 1026.87 1026.36 1025.77 1025.09 1025.38 1024.84 1024.03 1023.78 1023.49 1023.50 1022.98 1022.63 1022.12 1021.55 1021.91 1022.68 1023.56 1022.90 1022.46 1022.02 1021.38 1020.89 1020.25 1019.57 1019.24 1019.90 1020.02 1020.33 1020.01 1019.59 1019.27 1018.01 1017.72 1017.09 1015.90 1014.59 1013.40 1012.64 1012.08 1011.90 1011.78 1011.58 1012.43 1011.48
1027.41 1027.09 1026.65 1025.95 1025.28 1025.52 1024.94 1024.35 1023.96 1024.15 1024.14 1023.77 1023.27 1022.72 1022.30 1022.32 1024.48 1024.32 1023.36 1022.88 1022.27 1021.68 1021.10 1021.06 1020.70 1020.86 1021.38 1021.60 1021.59 1021.34 1020.18 1019.95 1019.20 1018.20 1017.32 1016.54 1015.78 1014.52 1013.61 1012.64 1011.86 1011.83 1011.65 1012.37 1012.18
1027.46 1027.33 1027.27 1026.22 1025.28 1025.41 1025.32 1025.13 1024.84 1024.61 1024.69 1024.30 1024.05 1023.34 1023.74 1024.31 1025.29 1024.29 1023.68 1023.00 1022.42 1022.16 1021.89 1021.76 1022.04 1022.38 1022.90 1022.75 1022.26 1021.87 1021.51 1020.70 1019.67 1018.77 1017.60 1016.56 1015.60 1015.06 1013.64 1012.99 1011.89 1011.97 1011.81 1012.00 1012.16
1027.38 1027.41 1027.07 1026.20 1025.98 1026.05 1025.89 1025.49 1025.01 1024.87 1024.87 1024.65 1024.44 1024.20 1024.23 1024.16 1025.10 1024.49 1023.86 1023.02 1022.78 1022.71 1022.73 1022.27 1022.76 1022.88 1023.27 1023.24 1023.15 1022.98 1022.13 1021.00 1020.09 1018.91 1017.74 1016.62 1014.91 1014.95 1013.86 1012.92 1012.27 1011.93 1011.72 1011.52 1011.68
1027.87 1027.84 1027.46 1026.89 1026.26 1025.77 1025.51 1025.85 1025.40 1024.92 1024.65 1024.64 1024.24 1024.52 1024.83 1025.74 1025.16 1024.60 1023.86 1023.71 1022.93 1023.09 1023.02 1022.78 1022.71 1023.04 1023.64 1023.62 1023.29 1023.32 1022.98 1022.00 1020.78 1020.20 1018.60 1017.15 1014.90 1014.17 1013.79 1013.34 1012.45 1012.04 1011.64 1011.57 1011.40
1028.32 1028.12 1027.75 1026.97 1026.48 1026.20 1026.20 1025.84 1025.36 1024.88 1025.00 1024.62 1024.68 1024.73 1025.40 1025.11 1025.00 1024.43 1023.87 1023.35 1022.83 1022.94 1022.97 1022.83 1022.98 1023.68 1023.88 1023.67 1024.27 1024.28 1024.18 1024.12 1022.90 1021.50 1020.10 1019.97 1015.45 1015.26 1014.47 1014.36 1013.78 1012.96 1012.36 1011.80 1011.21
1028.34 1027.93 1027.39 1026.94 1026.66 1026.41 1026.20 1025.74 1025.31 1025.32 1025.02 1024.58 1025.44 1025.58 1026.23 1025.18 1025.12 1025.31 1024.77 1024.67 1023.83 1023.24 1023.14 1022.83 1023.58 1025.14 1025.09 1025.20 1026.32 1026.49 1026.71 1025.90 1024.41 1022.90 1022.00 1021.26 1018.52 1017.71 1016.64 1015.17 1014.44 1013.70 1012.56 1012.18 1011.50
1028.64 1028.29 1027.98 1027.60 1027.23 1026.59 1025.96 1025.70 1025.70 1025.36 1025.42 1025.45 1026.19 1026.60 1026.85 1027.19 1026.48 1025.82 1024.97 1025.09 1025.04 1024.43 1023.82 1024.61 1025.83 1026.66 1026.82 1027.11 1028.51 1028.51 1028.21 1027.46 1026.04 1024.35 1022.72 1021.75 1019.20 1018.71 1017.57 1016.23 1015.04 1014.10 1013.06 1012.18 1011.77
1028.79 1028.44 1028.13 1027.89 1027.54 1026.80 1026.36 1026.30 1026.82 1027.04 1027.45 1028.48 1028.61 1028.19 1028.02 1027.47 1027.06 1026.50 1025.66 1025.54 1025.27 1025.54 1026.75 1026.95 1027.66 1028.12 1028.26 1028.62 1028.62 1028.66 1028.65 1027.79 1026.32 1024.87 1024.05 1022.59 1020.29 1018.98 1017.60 1015.93 1014.60 1013.73 1013.10 1012.00 1011.13
1028.73 1028.39 1028.02 1027.78 1027.67 1027.10 1027.44 1028.86 1029.81 1030.17 1029.54 1028.78 1028.62 1028.54 1028.49 1028.28 1027.95 1027.02 1026.06 1026.33 1027.09 1028.27 1028.16 1028.30 1028.64 1028.78 1028.48 1028.27 1028.31 1028.36 1028.34 1027.62 1026.53 1025.37 1024.67 1022.77 1020.84 1019.22 1017.59 1016.47 1015.26 1013.74 1012.31 1011.74 1010.87
1028.86 1028.71 1028.40 1027.95 1027.97 1028.47 1029.48 1030.22 1030.27 1030.18 1030.08 1029.31 1029.00 1028.84 1028.60 1028.30 1027.97 1027.38 1027.24 1027.78 1028.44 1029.05 1029.37 1029.33 1029.24 1028.97 1028.44 1028.19 1028.04 1028.07 1028.17 1027.94 1027.22 1025.69 1024.47 1023.15 1021.19 1019.60 1017.72 1016.16 1014.87 1013.58 1012.60 1011.95 1011.34
1029.25 1029.05 1028.73 1028.28 1028.62 1029.55 1030.25 1030.47 1030.41 1030.64 1030.99 1030.16 1029.18 1028.50 1028.29 1028.20 1028.33 1027.80 1027.80 1028.29 1028.87 1029.66 1029.65 1029.77 1029.16 1028.95 1028.45 1028.16 1028.36 1028.04 1027.75 1027.87 1027.26 1026.71 1025.58 1024.36 1022.27 1020.59 1018.28 1016.43 1015.14 1014.21 1013.23 1012.46 1012.06
1029.13 1029.15 1028.98 1028.50 1029.37 1029.95 1030.53 1030.49 1030.71 1031.26 1032.43 1030.92 1029.44 1028.48 1028.56 1028.94 1029.17 1028.13 1028.11 1028.21 1029.21 1029.80 1030.24 1030.22 1029.67 1029.36 1028.89 1028.50 1028.56 1028.18 1027.85 1027.88 1027.45 1027.14 1026.54 1024.51 1024.31 1020.25 1018.68 1016.95 1015.86 1014.80 1014.27 1013.72 1013.04
1029.06 1029.08 1029.09 1029.30 1029.81 1030.37 1030.32 1030.56 1031.10 1032.02 1031.88 1031.07 1030.24 1029.93 1029.59 1029.76 1029.94 1029.52 1029.23 1029.07 1029.32 1030.12 1030.55 1030.39 1029.77 1029.59 1028.98 1028.52 1028.45 1028.33 1028.11 1027.51 1027.65 1027.77 1027.34 1024.95 1024.56 1020.91 1019.11 1017.30 1016.26 1015.79 1015.12 1014.58 1013.68
1029.08 1029.19 1029.38 1029.78 1030.49 1030.48 1030.40 1030.88 1032.35 1033.11 1032.84 1032.16 1031.21 1031.05 1031.37 1031.49 1031.16 1031.14 1031.08 1031.08 1031.64 1031.76 1032.40 1031.54 1030.05 1029.34 1028.94 1028.95 1028.81 1029.07 1029.21 1029.62 1029.48 1029.08 1027.39 1025.19 1023.91 1020.33 1018.60 1017.16 1017.03 1016.18 1015.61 1015.23 1014.46
1029.08 1029.40 1030.03 1030.33 1030.45 1030.47 1030.85 1032.19 1033.21 1032.86 1032.18 1031.69 1031.85 1032.19 1032.57 1032.46 1032.54 1032.25 1032.30 1032.82 1033.13 1033.85 1034.45 1034.52 1031.13 1030.13 1029.61 1029.58 1029.83 1029.98 1030.48 1031.61 1032.00 1030.63 1027.99 1025.28 1022.98 1019.87 1018.13 1017.30 1016.72 1016.46 1016.29 1015.69 1015.03
1029.25 1030.03 1030.30 1030.63 1030.56 1030.68 1031.68 1033.20 1032.19 1032.36 1031.39 1031.68 1032.31 1032.96 1033.64 1033.64 1033.78 1033.54 1033.39 1033.38 1033.65 1034.24 1035.47 1035.73 1033.24 1031.14 1030.36 1029.91 1030.09 1030.21 1030.94 1031.22 1031.72 1030.81 1029.41 1024.96 1022.52 1019.76 1017.99 1017.40 1016.67 1016.80 1016.60 1015.88 1015.35
1029.28 1030.24 1030.68 1030.73 1030.75 1031.22 1032.84 1032.55 1031.82 1031.04 1030.91 1031.06 1032.07 1033.25 1034.67 1035.16 1035.15 1034.90 1034.79 1033.85 1033.54 1033.68 1034.56 1035.97 1035.09 1032.29 1031.21 1030.52 1030.19 1030.73 1031.07 1031.56 1032.17 1031.88 1030.06 1025.03 1022.80 1020.53 1018.48 1018.00 1017.44 1017.10 1016.71 1016.23 1015.62
1029.28 1030.52 1030.86 1030.85 1030.84 1032.18 1033.64 1033.01 1032.03 1030.97 1030.55 1030.95 1031.37 1032.78 1033.91 1034.75 1035.34 1035.57 1035.05 1034.29 1033.53 1034.01 1034.10 1035.43 1036.16 1033.36 1032.20 1031.38 1030.85 1031.20 1031.52 1032.07 1032.76 1032.30 1031.23 1027.90 1021.93 1019.46 1018.79 1018.34 1017.81 1017.46 1016.94 1016.21 1015.57
1029.38 1030.99 1030.83 1030.76 1032.24 1033.53 1033.72 1032.85 1031.84 1031.02 1030.80 1030.84 1031.22 1031.99 1033.08 1034.08 1035.21 1035.25 1034.81 1033.92 1032.98 1033.20 1034.12 1034.37 1035.33 1034.89 1032.53 1031.24 1030.98 1031.26 1031.74 1032.16 1033.04 1032.34 1031.59 1029.96 1022.55 1018.97 1018.25 1018.08 1017.98 1017.17 1016.72 1016.03 1015.20
1029.32 1030.49 1031.06 1030.97 1033.04 1034.00 1033.61 1033.05 1032.08 1031.52 1030.90 1031.11 1031.33 1031.74 1032.36 1033.50 1034.55 1034.07 1033.35 1032.02 1032.23 1032.65 1032.83 1034.03 1035.27 1034.91 1032.46 1032.33 1031.63 1031.58 1031.47 1031.70 1031.93 1031.83 1030.55 1029.72 1021.81 1018.45 1018.21 1018.02 1017.87 1017.19 1016.06 1015.62 1015.14
1029.56 1030.64 1031.69 1032.11 1032.93 1033.39 1033.52 1032.90 1032.38 1031.46 1031.14 1030.85 1031.19 1031.67 1032.31 1032.83 1033.42 1033.54 1033.00 1031.70 1031.36 1031.79 1032.25 1032.79 1034.55 1034.49 1033.76 1032.18 1032.46 1032.04 1031.52 1031.15 1031.84 1031.23 1028.93 1026.05 1021.40 1018.06 1018.03 1017.72 1016.71 1016.30 1015.66 1015.05 1014.72
1028.78 1029.84 1030.58 1032.51 1033.06 1032.90 1032.72 1032.14 1031.72 1031.39 1031.30 1030.98 1031.29 1031.06 1031.63 1032.75 1032.95 1032.94 1032.48 1031.98 1031.38 1031.22 1032.12 1033.10 1033.87 1034.42 1032.96 1032.02 1031.67 1030.37 1029.87 1029.75 1029.94 1028.76 1028.54 1022.39 1022.70 1019.02 1018.46 1017.39 1016.52 1015.85 1015.14 1014.46 1013.81
1027.15 1028.99 1030.67 1031.38 1031.74 1032.33 1032.16 1031.18 1030.34 1030.40 1030.36 1030.71 1030.86 1030.36 1031.12 1031.35 1030.79 1031.31 1031.55 1031.81 1031.14 1031.48 1032.30 1033.40 1033.81 1034.58 1032.77 1031.20 1030.64 1029.42 1028.04 1027.53 1027.30 1026.92 1026.02 1023.71 1021.39 1018.72 1017.90 1016.89 1016.04 1015.37 1014.64 1014.06 1013.38
1025.48 1026.56 1027.36 1029.60 1030.72 1031.04 1030.25 1029.00 1028.63 1028.91 1028.99 1028.74 1029.01 1030.10 1030.59 1029.53 1029.68 1030.05 1030.50 1031.03 1030.90 1031.40 1032.43 1033.68 1034.34 1035.12 1033.62 1031.78 1030.01 1028.20 1025.50 1025.26 1024.83 1024.21 1023.26 1022.45 1019.36 1018.08 1017.20 1016.35 1015.49 1014.54 1014.05 1013.52 1012.99
Wind_Speed
18 19 19 19 19 19 18 17 17 18 18 17 15 11 9 7 13 26 20 14 15 22 17 10 5 9 2 3 4 3 1 4 6 4 10 1 5 2 0 2 2 5 3 2 15
19 18 18 18 19 18 17 17 19 20 21 20 18 11 5 4 5 19 16 22 22 22 8 8 9 7 4 5 5 4 1 4 3 5 10 7 6 8 3 4 3 5 4 4 15
17 17 18 18 20 19 19 19 20 23 22 23 22 14 7 4 7 7 21 24 21 18 8 5 4 4 6 5 8 6 1 8 8 15 17 16 10 5 5 12 9 8 4 7 16
15 18 19 19 19 19 19 20 20 19 19 19 21 15 13 6 7 7 23 23 19 11 8 10 9 6 5 5 5 5 4 3 8 11 10 16 12 15 8 8 6 6 5 7 12
16 17 18 19 20 20 17 16 15 14 15 16 19 17 9 8 3 10 20 17 8 7 8 6 10 4 4 4 8 1 8 14 14 13 11 12 13 13 14 12 10 4 7 11 13
17 17 19 20 18 18 15 12 12 12 13 9 10 12 4 14 9 10 12 12 6 5 6 7 5 2 3 4 3 6 10 14 9 14 9 10 13 2 7 9 11 8 11 14 14
15 15 17 18 18 19 16 12 10 11 12 11 8 3 8 7 6 9 7 7 4 4 4 3 2 7 1 4 0 6 6 9 7 15 12 15 19 12 7 10 14 9 9 8 14
13 14 15 17 17 18 16 11 10 13 10 10 8 5 5 3 6 13 12 9 8 4 2 2 2 4 5 4 6 7 7 7 11 13 11 19 21 15 13 11 10 12 12 9 14
13 14 16 17 17 19 14 7 8 7 9 10 7 5 4 11 12 10 5 7 9 6 7 4 6 4 9 6 6 8 5 11 9 14 14 7 22 18 26 21 8 8 8 8 9
11 12 14 15 17 18 9 4 5 8 8 3 3 5 8 7 7 10 7 5 4 6 7 12 7 7 7 9 5 6 5 5 9 11 15 20 19 19 19 22 21 9 9 9 8
10 11 12 13 17 16 6 4 7 8 11 4 1 2 6 10 4 10 5 6 5 10 7 7 9 7 5 3 3 4 4 9 7 9 14 18 23 22 19 19 19 18 11 9 11
10 11 13 14 12 18 5 7 1 1 3 2 3 3 5 2 4 7 7 8 9 6 7 6 5 4 4 3 3 3 5 8 8 13 14 17 23 18 11 10 18 22 18 11 8
8 9 11 12 4 8 7 4 1 3 4 3 2 3 6 4 4 8 7 3 7 7 6 3 2 3 3 4 9 5 3 6 11 12 12 8 11 8 18 13 11 15 11 13 11
6 6 10 4 7 1 4 4 3 3 7 6 3 2 4 2 2 3 4 3 5 6 4 3 4 5 5 4 3 6 3 7 12 15 7 5 11 9 13 11 4 14 14 9 12
3 5 7 8 5 4 2 1 3 4 5 2 6 3 6 5 5 5 5 5 2 3 5 4 7 8 3 2 1 8 7 9 15 12 5 4 2 8 11 16 5 10 11 12 11
1 4 2 4 3 2 2 3 3 10 7 4 3 7 4 6 7 7 7 5 2 3 2 5 4 2 3 4 3 8 8 14 2 1 4 5 3 8 6 6 13 8 8 12 13
4 8 5 2 1 2 3 4 8 6 3 6 1 3 1 5 6 7 6 8 5 9 8 9 3 4 1 5 4 8 5 6 10 7 7 4 11 10 14 18 7 12 7 8 9
6 5 5 2 1 2 4 8 5 3 7 2 2 2 3 4 1 6 3 5 6 5 4 4 10 1 2 3 4 4 3 4 6 5 16 18 8 7 8 7 6 5 7 5 7
7 2 2 3 3 3 6 5 10 8 5 6 2 5 6 3 1 4 2 6 3 4 4 5 8 5 2 1 2 3 2 4 4 11 6 5 6 13 10 10 4 5 5 8 12
4 2 1 5 2 5 7 7 4 4 5 3 6 3 3 5 1 2 1 5 5 5 4 2 8 2 6 5 2 4 1 3 3 5 7 11 13 13 14 13 12 11 10 8 10
3 3 1 4 3 6 4 8 5 5 2 4 6 4 4 3 4 2 3 6 3 4 6 6 5 8 4 4 5 2 3 2 2 3 3 8 13 6 8 6 10 9 12 16 18
4 1 2 2 4 1 3 6 3 4 2 1 2 3 7 5 3 3 6 6 6 7 6 7 4 6 11 4 3 5 5 4 5 6 3 6 20 5 14 9 6 15 20 20 18
4 3 2 4 4 4 4 3 2 3 5 4 5 4 3 5 1 5 5 4 8 7 7 6 2 6 10 7 5 3 3 5 2 2 10 6 14 4 2 15 19 20 20 16 17
4 2 2 4 2 6 5 4 4 2 2 3 5 4 3 4 4 4 4 4 8 7 8 7 4 9 10 11 3 13 11 11 6 7 7 19 32 35 27 21 21 19 19 18 16
4 6 5 6 6 4 3 5 5 5 2 4 1 7 8 4 2 5 4 4 3 6 5 6 6 7 16 20 20 26 26 19 19 22 15 28 18 30 25 24 22 21 20 19 16
8 6 2 3 2 7 5 8 11 5 9 5 5 7 7 7 11 9 6 4 6 3 7 1 5 2 16 11 6 19 21 20 21 20 26 30 35 31 27 21 15 16 15 15 15
3 2 5 6 5 7 7 9 11 9 8 6 12 7 10 18 7 5 5 3 4 7 6 4 3 5 10 8 12 9 9 7 4 9 8 10 20 18 19 21 19 16 13 14 13
Wind_Direction
35 31 31 28 23 17 22 27 21 18 14 11 8 5 339 343 25 38 40 356 347 341 334 310 335 351 19 38 336 46 350 214 215 192 262 308 333 275 308 248 11 315 263 0 129
31 23 26 27 21 18 18 27 18 20 14 7 3 13 347 219 26 39 357 352 348 346 344 354 351 348 40 8 22 50 346 260 260 252 264 263 228 290 318 317 279 311 279 185 146
29 18 20 22 22 15 16 25 21 15 9 7 359 10 39 108 59 342 341 345 344 347 314 312 323 45 61 3 9 339 202 360 339 343 347 329 305 260 274 288 237 241 249 233 158
29 16 13 16 21 10 15 20 24 15 2 10 9 9 47 41 63 290 331 333 337 340 14 25 13 36 62 17 4 347 310 10 309 322 329 315 306 303 300 271 300 282 220 183 195
23 15 3 11 19 8 12 13 17 13 2 6 17 19 30 59 82 286 323 326 336 355 24 32 41 33 48 343 336 66 342 325 311 303 297 292 290 276 283 289 299 321 170 200 219
17 8 2 6 11 1 359 4 10 4 359 8 356 18 74 66 263 308 319 328 358 5 356 38 54 63 68 2 60 303 296 297 297 292 279 275 287 247 321 304 296 236 217 208 214
13 5 1 359 0 0 354 343 353 357 358 4 33 71 43 55 312 307 312 298 313 321 353 27 94 65 271 337 259 288 333 332 33 342 313 314 272 245 253 298 272 259 244 228 232
7 360 357 359 357 353 344 335 347 357 359 20 38 57 60 295 303 358 338 336 349 358 311 329 112 99 40 302 19 4 38 7 328 340 321 347 281 310 328 336 331 313 301 272 245
2 357 358 359 356 346 342 335 352 346 10 13 31 73 347 327 3 322 359 327 310 344 15 50 61 72 358 49 23 23 325 334 325 320 333 8 302 320 313 302 298 311 314 318 295
358 357 358 1 356 350 345 359 7 25 358 39 59 36 8 315 310 323 326 353 332 336 19 30 51 57 27 38 22 322 315 286 302 313 333 319 302 308 302 303 301 278 282 287 284
348 350 356 5 4 8 27 23 21 356 37 61 4 19 312 307 309 321 341 333 20 56 29 2 53 35 355 65 219 234 275 286 281 293 329 308 294 304 299 292 290 287 266 256 270
341 344 351 348 25 16 56 70 99 190 65 4 317 286 262 269 301 311 12 50 36 32 343 28 50 332 304 4 54 42 293 297 289 315 320 297 295 292 290 298 304 293 280 253 260
339 338 344 348 85 40 62 65 23 97 87 295 265 269 282 1 339 318 24 40 47 33 13 65 292 314 32 354 6 347 274 295 293 308 284 305 295 302 297 301 306 309 311 322 307
314 335 350 353 52 146 49 337 30 68 73 294 314 344 331 336 294 267 15 70 39 13 354 270 319 348 346 26 39 320 243 294 300 323 300 61 298 298 292 296 350 346 345 334 351
300 340 20 50 149 67 155 10 95 58 37 225 300 311 327 65 326 355 344 33 88 335 64 273 334 347 330 285 292 259 307 278 295 290 321 297 305 266 298 290 349 3 11 3 356
222 352 57 27 51 89 57 82 67 46 262 336 314 351 19 22 355 317 4 23 103 69 13 249 291 246 264 295 264 295 318 303 329 350 356 271 57 271 281 263 332 333 341 354 353
107 59 61 48 101 357 83 57 37 123 333 288 290 25 133 350 347 28 8 9 32 23 6 328 275 290 351 328 322 16 24 347 354 4 243 342 320 263 278 278 270 283 318 339 351
121 71 34 62 2 89 53 53 91 238 227 278 185 79 92 17 24 337 54 29 40 56 32 37 334 221 41 144 276 319 101 137 300 309 299 295 242 260 279 280 261 11 317 324 353
119 33 54 352 348 75 72 67 205 199 167 155 64 68 314 336 174 13 110 171 162 136 122 14 280 316 289 296 101 334 27 204 248 264 275 259 300 296 293 327 313 344 310 350 347
108 64 329 330 36 64 76 237 200 183 146 148 173 121 210 266 58 59 349 231 152 136 130 229 305 295 308 353 261 198 225 10 5 335 307 285 295 259 305 303 295 329 330 319 325
79 50 269 337 69 53 184 227 228 232 157 164 178 158 214 223 167 250 245 288 221 124 103 132 136 285 18 192 171 13 328 41 120 158 258 307 288 226 270 278 295 310 313 315 313
123 331 297 58 61 108 178 198 227 163 107 126 135 146 176 158 193 255 220 224 192 152 156 191 160 280 251 222 214 179 222 165 124 284 241 282 268 261 262 281 288 307 304 302 299
155 178 337 91 176 244 300 296 253 157 190 156 181 184 152 180 331 207 212 207 180 173 165 177 277 325 338 3 355 136 190 217 118 232 238 242 262 221 234 306 302 296 296 296 294
100 157 335 45 119 138 142 233 243 237 165 146 152 94 127 197 188 264 255 252 182 200 172 152 183 181 215 244 169 282 250 251 246 251 271 237 274 290 296 297 302 299 293 293 296
138 233 174 186 242 179 165 159 156 198 264 186 202 203 162 166 180 230 231 290 220 214 195 153 220 230 248 265 270 267 272 262 239 239 248 270 271 278 286 291 293 293 290 288 285
151 158 126 165 133 113 208 216 182 190 155 237 214 191 172 174 186 191 178 215 215 109 163 178 266 70 294 264 288 285 262 256 245 247 246 258 272 272 280 282 284 286 280 280 289
136 80 127 170 154 129 212 205 201 145 216 178 195 136 197 231 212 197 192 219 188 168 186 172 154 50 263 334 318 289 240 198 210 199 197 224 257 291 296 295 296 295 287 278 283